Location: Jackson Park
(37.2862°N, 79.9123°W)
Time: 14:43:34
(UTC+00:00)

Vanguard 1 Rocket - Pass Details

Date: 19 May 2026
Orbit: 656 x 4211 km, 34.3° (Epoch: 8 June)

Event Time Altitude Azimuth Distance (km) Brightness Sun altitude
Rises 19:34:18 0° 246° (WSW) 3,589 11.0 55.3°
Reaches altitude 10° 19:36:22 10° 243° (WSW) 2,871 10.7 55.0°
Maximum altitude 19:43:17 65° 162° (SSE) 1,675 9.6 53.7°
Drops below altitude 10° 19:56:56 10° 85° (E) 5,398 11.1 51.1°
Sets 20:02:25 0° 83° (E) 6,983 11.5 50.0°
